When you browse on this site, cookies collect data to enhance your experience and personalize the content and advertising you see.
Visit our Privacy Policy to learn more. By continuing to use the site, you agree to this use of cookies and data.
  • In Österreich
  • Länderverzeichnis
  • Für 7 Tage
  • Wassertemperatur
  • Wetterkarte
  • News
  • Widgets
  • user-avatar
    Anmelden

    Stündliche Wetter Pacho

    Heute, 17 September, Dienstag

    Zeit Temperatur Niederschläge Wind Luftdruck Luftfeuchtigkeit
    00:00 +16°C° 0.1 mm 1 m/S 612 mmHg 92%
    01:00 +15°C° 0.1 mm 1 m/S 612 mmHg 92%
    02:00 +15°C° 0.1 mm 1 m/S 611 mmHg 91%
    03:00 +15°C° 0.1 mm 1 m/S 611 mmHg 90%
    04:00 +15°C° 0.1 mm 1 m/S 611 mmHg 90%
    05:00 +16°C° 0 mm 1 m/S 612 mmHg 87%
    06:00 +16°C° 0 mm 1 m/S 612 mmHg 85%
    07:00 +18°C° 0 mm 1 m/S 613 mmHg 83%
    08:00 +20°C° 0.1 mm 1 m/S 614 mmHg 76%
    09:00 +22°C° 0.1 mm 1 m/S 615 mmHg 69%
    10:00 +24°C° 0.1 mm 1 m/S 615 mmHg 63%
    11:00 +24°C° 0.8 mm 1 m/S 615 mmHg 66%
    12:00 +24°C° 0.8 mm 1 m/S 614 mmHg 69%
    13:00 +24°C° 0.8 mm 1 m/S 613 mmHg 72%
    14:00 +23°C° 2 mm 1 m/S 612 mmHg 77%
    15:00 +23°C° 2 mm 1 m/S 612 mmHg 82%
    16:00 +20°C° 2 mm 0 m/S 611 mmHg 86%
    17:00 +19°C° 2.6 mm 0 m/S 611 mmHg 89%
    18:00 +18°C° 2.6 mm 0 m/S 612 mmHg 92%
    19:00 +17°C° 2.6 mm 0 m/S 612 mmHg 95%
    20:00 +18°C° 2 mm 1 m/S 612 mmHg 95%
    21:00 +18°C° 2 mm 1 m/S 612 mmHg 95%
    22:00 +18°C° 2 mm 1 m/S 613 mmHg 96%
    23:00 +18°C° 0.1 mm 1 m/S 612 mmHg 95%

    Morgen, 18 September, Mittwoch

    Zeit Temperatur Niederschläge Wind Luftdruck Luftfeuchtigkeit
    00:00 +18°C° 0.1 mm 1 m/S 612 mmHg 94%
    01:00 +16°C° 0.1 mm 1 m/S 612 mmHg 93%
    02:00 +15°C° 0.2 mm 0 m/S 612 mmHg 94%
    03:00 +15°C° 0.2 mm 0 m/S 612 mmHg 94%
    04:00 +15°C° 0.2 mm 0 m/S 612 mmHg 95%
    05:00 +16°C° 0.3 mm 0 m/S 612 mmHg 94%
    06:00 +16°C° 0.3 mm 0 m/S 613 mmHg 94%
    07:00 +16°C° 0.3 mm 0 m/S 613 mmHg 93%
    08:00 +19°C° 0.2 mm 1 m/S 614 mmHg 90%
    09:00 +20°C° 0.2 mm 1 m/S 614 mmHg 87%
    10:00 +21°C° 0.2 mm 1 m/S 614 mmHg 84%
    11:00 +22°C° 0.4 mm 1 m/S 614 mmHg 81%
    12:00 +22°C° 0.4 mm 1 m/S 613 mmHg 78%
    13:00 +23°C° 0.4 mm 1 m/S 613 mmHg 75%
    14:00 +22°C° 0.7 mm 1 m/S 612 mmHg 77%
    15:00 +22°C° 0.7 mm 1 m/S 612 mmHg 79%
    16:00 +21°C° 0.7 mm 1 m/S 611 mmHg 81%
    17:00 +21°C° 1.7 mm 1 m/S 611 mmHg 86%
    18:00 +20°C° 1.7 mm 1 m/S 611 mmHg 90%
    19:00 +19°C° 1.7 mm 1 m/S 611 mmHg 95%
    20:00 +18°C° 1.3 mm 1 m/S 611 mmHg 95%
    21:00 +16°C° 1.3 mm 0 m/S 612 mmHg 95%
    22:00 +16°C° 1.3 mm 0 m/S 612 mmHg 95%
    23:00 +16°C° 0.1 mm 0 m/S 612 mmHg 94%

    übermorgen, 19 September, Donnerstag

    Zeit Temperatur Niederschläge Wind Luftdruck Luftfeuchtigkeit
    00:00 +15°C° 0.1 mm 0 m/S 611 mmHg 94%
    01:00 +15°C° 0.1 mm 0 m/S 611 mmHg 93%
    02:00 +15°C° 0 mm 0 m/S 611 mmHg 93%
    03:00 +15°C° 0 mm 0 m/S 611 mmHg 93%
    04:00 +15°C° 0 mm 0 m/S 611 mmHg 93%
    05:00 +15°C° 0 mm 0 m/S 611 mmHg 92%
    06:00 +16°C° 0 mm 0 m/S 612 mmHg 91%
    07:00 +16°C° 0 mm 0 m/S 613 mmHg 90%
    08:00 +17°C° 0.2 mm 0 m/S 613 mmHg 85%
    09:00 +21°C° 0.2 mm 1 m/S 614 mmHg 81%
    10:00 +22°C° 0.2 mm 1 m/S 614 mmHg 76%
    11:00 +22°C° 0.8 mm 1 m/S 614 mmHg 78%
    12:00 +22°C° 0.8 mm 1 m/S 613 mmHg 79%
    13:00 +22°C° 0.8 mm 1 m/S 612 mmHg 81%
    14:00 +22°C° 1.5 mm 1 m/S 612 mmHg 84%
    15:00 +21°C° 1.5 mm 1 m/S 611 mmHg 87%
    16:00 +21°C° 1.5 mm 1 m/S 611 mmHg 91%
    17:00 +20°C° 2.3 mm 1 m/S 611 mmHg 93%
    18:00 +17°C° 2.3 mm 0 m/S 611 mmHg 95%
    19:00 +16°C° 2.3 mm 0 m/S 611 mmHg 97%
    20:00 +16°C° 0.6 mm 0 m/S 611 mmHg 96%
    21:00 +16°C° 0.6 mm 0 m/S 612 mmHg 95%
    22:00 +16°C° 0.6 mm 0 m/S 612 mmHg 94%
    23:00 +16°C° 0.3 mm 0 m/S 612 mmHg 95%

    20 September, Freitag

    Zeit Temperatur Niederschläge Wind Luftdruck Luftfeuchtigkeit
    00:00 +16°C° 0.3 mm 0 m/S 612 mmHg 96%
    01:00 +15°C° 0.3 mm 0 m/S 612 mmHg 96%
    02:00 +15°C° 0.4 mm 0 m/S 612 mmHg 97%
    03:00 +15°C° 0.4 mm 0 m/S 612 mmHg 97%
    04:00 +15°C° 0.4 mm 0 m/S 612 mmHg 97%
    05:00 +16°C° 0.1 mm 0 m/S 612 mmHg 96%
    06:00 +16°C° 0.1 mm 0 m/S 613 mmHg 95%
    07:00 +16°C° 0.1 mm 0 m/S 614 mmHg 94%
    08:00 +17°C° 0.4 mm 0 m/S 614 mmHg 90%
    09:00 +21°C° 0.4 mm 1 m/S 615 mmHg 85%
    10:00 +22°C° 0.4 mm 1 m/S 615 mmHg 81%
    11:00 +22°C° 1.1 mm 1 m/S 614 mmHg 82%
    12:00 +22°C° 1.1 mm 1 m/S 614 mmHg 82%
    13:00 +22°C° 1.1 mm 1 m/S 613 mmHg 83%
    14:00 +20°C° 1.7 mm 0 m/S 613 mmHg 85%
    15:00 +20°C° 1.7 mm 0 m/S 612 mmHg 87%
    16:00 +19°C° 1.7 mm 0 m/S 612 mmHg 88%
    17:00 +18°C° 1.2 mm 0 m/S 612 mmHg 91%
    18:00 +19°C° 1.2 mm 1 m/S 612 mmHg 93%
    19:00 +18°C° 1.2 mm 1 m/S 612 mmHg 95%
    20:00 +18°C° 0.8 mm 1 m/S 612 mmHg 95%
    21:00 +16°C° 0.8 mm 1 m/S 613 mmHg 95%
    22:00 +16°C° 0.8 mm 1 m/S 613 mmHg 94%
    23:00 +15°C° 0.6 mm 1 m/S 613 mmHg 94%

    21 September, Samstag

    Zeit Temperatur Niederschläge Wind Luftdruck Luftfeuchtigkeit
    00:00 +15°C° 0.6 mm 1 m/S 612 mmHg 94%
    01:00 +15°C° 0.6 mm 1 m/S 612 mmHg 94%
    02:00 +15°C° 0.1 mm 1 m/S 612 mmHg 93%
    03:00 +15°C° 0.1 mm 1 m/S 612 mmHg 93%
    04:00 +15°C° 0.1 mm 1 m/S 612 mmHg 93%
    05:00 +15°C° 0 mm 1 m/S 612 mmHg 91%
    06:00 +16°C° 0 mm 1 m/S 613 mmHg 89%
    07:00 +18°C° 0 mm 1 m/S 614 mmHg 87%
    08:00 +20°C° 0.3 mm 1 m/S 614 mmHg 82%
    09:00 +21°C° 0.3 mm 1 m/S 615 mmHg 77%
    10:00 +23°C° 0.3 mm 1 m/S 616 mmHg 71%
    11:00 +24°C° 1.1 mm 1 m/S 615 mmHg 72%
    12:00 +24°C° 1.1 mm 1 m/S 614 mmHg 73%
    13:00 +24°C° 1.1 mm 1 m/S 614 mmHg 73%
    14:00 +23°C° 1.7 mm 1 m/S 613 mmHg 76%
    15:00 +23°C° 1.7 mm 1 m/S 612 mmHg 79%
    16:00 +22°C° 1.7 mm 1 m/S 612 mmHg 82%
    17:00 +21°C° 1.4 mm 1 m/S 611 mmHg 85%
    18:00 +19°C° 1.4 mm 1 m/S 611 mmHg 88%
    19:00 +18°C° 1.4 mm 1 m/S 611 mmHg 91%
    20:00 +16°C° 0.6 mm 1 m/S 611 mmHg 92%
    21:00 +16°C° 0.6 mm 2 m/S 612 mmHg 92%
    22:00 +16°C° 0.6 mm 2 m/S 612 mmHg 93%
    23:00 +15°C° 0.3 mm 2 m/S 612 mmHg 92%

    22 September, Sonntag

    Zeit Temperatur Niederschläge Wind Luftdruck Luftfeuchtigkeit
    00:00 +15°C° 0.3 mm 1 m/S 612 mmHg 92%
    01:00 +15°C° 0.3 mm 1 m/S 612 mmHg 91%
    02:00 +15°C° 0.2 mm 1 m/S 611 mmHg 91%
    03:00 +15°C° 0.2 mm 1 m/S 611 mmHg 90%
    04:00 +15°C° 0.2 mm 1 m/S 611 mmHg 89%
    05:00 +16°C° 0.1 mm 1 m/S 612 mmHg 88%
    06:00 +16°C° 0.1 mm 1 m/S 613 mmHg 87%
    07:00 +18°C° 0.1 mm 1 m/S 614 mmHg 86%
    08:00 +20°C° 0.1 mm 1 m/S 615 mmHg 78%
    09:00 +22°C° 0.1 mm 1 m/S 615 mmHg 71%
    10:00 +24°C° 0.1 mm 1 m/S 616 mmHg 63%
    11:00 +24°C° 0.4 mm 2 m/S 615 mmHg 64%
    12:00 +24°C° 0.4 mm 2 m/S 615 mmHg 64%
    13:00 +24°C° 0.4 mm 2 m/S 614 mmHg 65%
    14:00 +24°C° 0.6 mm 2 m/S 613 mmHg 68%
    15:00 +23°C° 0.6 mm 2 m/S 613 mmHg 72%
    16:00 +21°C° 0.6 mm 2 m/S 612 mmHg 75%
    17:00 +21°C° 0.6 mm 1 m/S 612 mmHg 79%
    18:00 +19°C° 0.6 mm 1 m/S 612 mmHg 83%
    19:00 +18°C° 0.6 mm 1 m/S 612 mmHg 87%
    20:00 +16°C° 0.2 mm 1 m/S 612 mmHg 87%
    21:00 +16°C° 0.2 mm 2 m/S 612 mmHg 87%
    22:00 +15°C° 0.2 mm 2 m/S 612 mmHg 87%
    23:00 +15°C° 0.1 mm 2 m/S 612 mmHg 86%
    Mehr zeigen